星链-2660 (STARLINK-2660 )

导读 | 星芒AI

STARLINK-2660 是 SpaceX Starlink 项目中的一颗低轨通信卫星,属于第26组发射批次。该卫星旨在为全球用户提供高速、低延迟的互联网服务,特别服务于网络基础设施薄弱的地区。它运行在约550公里高的近地轨道,采用先进推进系统和激光通信技术,以提升网络效率和稳定性。作为 Starlink 卫星群的一部分,STARLINK-2660 有助于构建覆盖全球的宽带网络,支持民用、商业及应急通信需求。

基本信息
目录编号:
48450
目录名称:
STARLINK-2660
国际标识:
2021-040Y
轨道中心:
EARTH
卫星名称:
星链-2660
卫星全名:
星链-2660 (STARLINK-2660 )
卫星状态:
在轨 (已飞行1684 天)
发射日期:
2021-05-09 UTC
国别 :
美国 (US)
星等 :
--
轨道信息
数据来源 国际轨道数据
星历时间: 2025-12-18T05:19:52+0800
14小时前
查看轨道信息
半长轴: 6611.025km
偏心率: 0.0007641
轨道倾角: 53.039°
近地点辐角 264.250°
升交点赤经 157.798°
平近点角 95.767°
近地点: 227.838km
远地点: 237.942km
周期: 89.159分钟
每日圈数: 16.151008
详细信息
固有亮度:
5
最大亮度:
2.5
卫星平台:
Starlink V1.0
覆盖范围:
全球
运营商:
太空探索技术公司
运营商所在国:
美国
制造商(研发单位):
太空探索技术公司
制造商所在国:
美国
使用方式:
暂无
卫星简介
星链(Starlink)计划是由太空探索技术公司(SpaceX)提出的一个巨型低轨卫星互联网星座项目,计划在2019年至2024年间在太空搭建由约1.2万颗卫星组成的“星链”网络,其中1584颗将部署在地球上空550千米处的近地轨道,并从2020年开始工作。该卫星仍在工作。
2D轨道图
3D轨道图
轨道高度分析图
轨道倾角分析图
轨道综合分析图
查看轨道综合分析图